OneWeb SL0510

operational
NORAD ID: 54128 Int'l Des: 2022-138 Owner: ONEWEBN Country: UK Constellation: oneweb
LEOCIRCULARPOLARONEWEB_TYPE

Über OneWeb SL0510

Beschreibung wird geladen...

Live-Position

3D-Globus wird geladen...

Nächste Überflüge

Höhenverlauf

Altitude vs Time

uPlot chart will show altitude changes over time

Zweizeiliger Elementsatz

1 54128U 22138R 25261.16461757 -.00000132 00000-0 -35614-3 0 9999
2 54128 87.9262 328.6743 0002481 104.3763 255.7646 13.20771141143378
Epoch: 18. Sept. 2025 • Age: 7 hours

Aktueller Status

Höhe 1199.8 km
Geschwindigkeit 7.25 km/s
Subsatellitenpunkt -42.80°S, 163.97°E
Startdatum 22. Okt. 2022
Alter 2.9 years
Typ internet

Technische Details

Klassifizierung Payload
Masse 148.00 kg
Trockenmasse 140.00 kg
Gesamtmasse 148.00 kg
Länge 1.30 m
Durchmesser 1.00 m
Spannweite 5.00 m
Form Trapezoid+2 pan
Hersteller ONEWUS
Bus-Typ ARROW
Phasenstatus In Orbit
Besitzer/Staat ONEWEBN/UK

Große Konstellationen

Loading constellations...